Dallas/Ft Worth, TX

11:20 PM CDT on June 25, 2017 (GMT -0500)
Dallas-Fort Worth International

Weather History for KDFW - June, 2014

Change the Weather History Date:

Saturday, June 7, 2014

  Actual Average Record
Temperature  
Mean Temperature 86 °F 80 °F  
Max Temperature 96 °F 90 °F 101 °F (1980)
Min Temperature 76 °F 70 °F 57 °F (1983)
Degree Days  
Heating Degree Days 0 0  
Month to date heating degree days 0 0  
Since 1 June heating degree days 0 0  
Since 1 July heating degree days 2603 2284  
Cooling Degree Days 21 15  
Month to date cooling degree days 134 99  
Year to date cooling degree days 610 521  
Since 1 June cooling degree days 134 99  
Growing Degree Days 36 (Base 50)    
Moisture  
Dew Point 68 °F    
Average Humidity 61    
Maximum Humidity 82    
Minimum Humidity 39    
Precipitation  
Precipitation 0.00 in 0.14 in 3.08 in (1989)
Month to date precipitation 0.00 1.01  
Year to date precipitation 7.33 17.26  
Sea Level Pressure  
Sea Level Pressure 29.86 in    
Wind  
Wind Speed 14 mph (South)    
Max Wind Speed 22 mph    
Max Gust Speed 31 mph    
Visibility 10 miles    
Events      
T = Trace of Precipitation, MM = Missing Value Source: NWS Daily Summary

Daily Weather History Graph

Daily Weather History Graph

Search for Another Location

Airport or City:

Trip Planner

Search our weather history database for the weather conditions in past years. The results will help you decide how hot, cold, wet, or windy it might be!

Date:

Astronomy

Jun. 07, 2014 Rise Set
Actual Time 6:19 AM CDT 8:34 PM CDT
Civil Twilight 5:51 AM CDT 9:03 PM CDT
Nautical Twilight 5:16 AM CDT 9:38 PM CDT
Astronomical Twilight 4:38 AM CDT 10:15 PM CDT
Moon 3:09 PM CDT (6/7) 2:24 AM CDT (6/7)
Length of Visible Light 15h 12m
Length of Day
14h 15m
Waxing Gibbous, 68% of the Moon is Illuminated
Jun 7
Waxing Gibbous
Jun 12
Full
Jun 19
Last Quarter
Jun 27
New
Jul 5
First Quarter

Hourly Weather History & Observations

Time (CDT) Temp. Heat Index Dew Point Humidity Pressure Visibility Wind Dir Wind Speed Gust Speed Precip Events Conditions
12:53 AM 82.0 °F 85.9 °F 70.0 °F 67% 29.84 in 10.0 mi SSE 10.4 mph - N/A   Mostly Cloudy
1:53 AM 80.1 °F 83.2 °F 70.0 °F 71% 29.89 in 10.0 mi SSE 5.8 mph - N/A   Mostly Cloudy
2:53 AM 77.0 °F - 70.0 °F 79% 29.91 in 10.0 mi SE 4.6 mph - N/A   Overcast
3:53 AM 78.1 °F - 70.0 °F 76% 29.90 in 10.0 mi SSE 8.1 mph - N/A   Overcast
4:53 AM 78.1 °F - 70.0 °F 76% 29.88 in 10.0 mi South 13.8 mph - N/A   Clear
5:53 AM 77.0 °F - 69.1 °F 76% 29.86 in 10.0 mi South 15.0 mph - N/A   Scattered Clouds
6:53 AM 75.9 °F - 69.1 °F 79% 29.85 in 10.0 mi South 18.4 mph 26.5 mph N/A   Scattered Clouds
7:53 AM 78.8 °F - 69.8 °F 74% 29.91 in 10.0 mi South 21.9 mph - N/A   Scattered Clouds
8:53 AM 82.9 °F 85.8 °F 68.0 °F 60% 29.90 in 10.0 mi South 20.7 mph 26.5 mph N/A   Partly Cloudy
9:53 AM 84.9 °F 88.2 °F 68.0 °F 57% 29.91 in 10.0 mi SSW 19.6 mph - N/A   Scattered Clouds
10:53 AM 88.0 °F 91.4 °F 68.0 °F 51% 29.91 in 10.0 mi SSW 18.4 mph - N/A   Scattered Clouds
11:53 AM 91.0 °F 94.3 °F 66.9 °F 45% 29.90 in 10.0 mi SSW 17.3 mph - N/A   Partly Cloudy
12:53 PM 93.0 °F 96.4 °F 66.9 °F 42% 29.88 in 10.0 mi South 16.1 mph - N/A   Scattered Clouds
1:53 PM 93.0 °F 96.4 °F 66.9 °F 42% 29.88 in 10.0 mi SSW 17.3 mph 23.0 mph N/A   Mostly Cloudy
2:53 PM 91.9 °F 95.4 °F 66.9 °F 44% 29.86 in 10.0 mi SSW 16.1 mph 24.2 mph N/A   Mostly Cloudy
3:53 PM 95.0 °F 97.9 °F 66.0 °F 38% 29.83 in 10.0 mi SSW 18.4 mph 26.5 mph N/A   Scattered Clouds
4:53 PM 93.0 °F 95.9 °F 66.0 °F 41% 29.82 in 10.0 mi SSW 9.2 mph - N/A   Scattered Clouds
5:53 PM 93.9 °F 97.0 °F 66.0 °F 40% 29.82 in 10.0 mi SSW 13.8 mph - N/A   Scattered Clouds
6:53 PM 91.9 °F 94.5 °F 66.0 °F 42% 29.80 in 10.0 mi South 17.3 mph - N/A   Scattered Clouds
7:53 PM 91.0 °F 93.8 °F 66.0 °F 44% 29.81 in 10.0 mi South 15.0 mph - N/A   Scattered Clouds
8:53 PM 88.0 °F 90.7 °F 66.9 °F 49% 29.82 in 10.0 mi SSE 10.4 mph - N/A   Scattered Clouds
9:53 PM 86.0 °F 88.8 °F 66.9 °F 53% 29.84 in 10.0 mi SSE 11.5 mph - N/A   Mostly Cloudy
10:53 PM 84.9 °F 88.2 °F 68.0 °F 57% 29.84 in 10.0 mi SSE 9.2 mph - N/A   Mostly Cloudy
11:53 PM 84.9 °F 88.8 °F 69.1 °F 59% 29.83 in 10.0 mi SSE 12.7 mph 23.0 mph N/A   Mostly Cloudy